Tracking 19576 objects as of 16-Feb-2019
HD Live streaming from Space Station
objects crossing your sky now

SL-16 DEB

Track SL-16 DEB now!
10-day predictions


NORAD ID: 39868
Int'l Code: 1993-016AS
Perigee: 757.9 km
Apogee: 948.8 km
Inclination: 71.0 °
Period: 101.8 minutes
Semi major axis: 7224 km
RCS: 0.0063 m2 (small)
Launch date: March 26, 1993
Source: Commonwealth of Independent States (former USSR) (CIS)
Launch site: TYURATAM MISSILE AND SPACE COMPLEX (TTMTR)

Note: This is SATELLITE DEBRIS
aabbcc
Your satellite tracking list
Your tracking list is empty




NASA's NSSDC Master Catalog

Two Line Element Set (TLE):
1 39868U 93016AS  19031.54415161  .00001143  00000-0  57773-3 0  9995
2 39868  70.9576   0.0051 0132122  39.2070 321.8530 14.13866954725696
Source of the keplerian elements: AFSPC